Wind_Speed
5 5 7 7 4 7 7 8 11 9 6 3 9 6 3 1 4 1 9 21 20 19 20 20 17 16 16 15 14 13 11 10 9 9 8 7 6 4 4 6 8 6 5 10 9 9 8 8 10
6 6 6 4 3 4 2 7 7 4 7 5 3 5 5 6 9 3 17 21 20 17 18 18 17 16 15 15 13 12 11 9 8 8 7 6 4 3 2 6 8 9 12 12 9 8 8 8 9
5 4 7 5 1 9 6 9 10 7 6 5 2 6 9 11 10 6 17 20 21 18 17 16 16 16 15 14 13 12 10 9 7 6 7 5 5 3 2 3 6 12 12 10 8 8 8 8 9
6 4 6 6 11 10 6 7 9 8 5 6 4 3 3 3 7 15 19 20 20 18 16 15 15 16 14 13 12 12 10 8 7 6 5 6 5 4 3 2 4 7 7 6 5 7 7 8 9
11 8 5 12 12 9 7 7 8 10 8 9 9 6 2 7 16 18 17 18 18 17 17 16 16 15 13 12 12 11 9 7 6 6 4 4 5 5 4 3 3 4 6 7 7 9 9 9 9
7 6 7 7 12 15 8 7 8 10 10 11 9 5 6 11 15 14 17 18 18 14 16 16 16 15 14 12 11 10 8 7 5 4 4 3 4 5 5 5 3 3 4 6 7 8 9 9 9
2 4 4 7 9 6 4 7 7 9 12 13 9 8 6 10 15 17 18 17 17 15 15 15 15 15 14 13 10 9 7 7 4 4 4 5 4 7 9 7 6 4 4 3 4 5 7 8 8
2 1 5 7 5 6 8 7 5 7 9 13 13 8 2 5 12 20 20 19 17 15 15 15 14 14 13 12 10 8 6 5 5 4 6 5 5 6 10 12 9 6 5 4 3 4 3 5 4
5 4 7 4 7 6 6 8 8 4 8 12 13 7 3 4 9 17 20 22 20 17 15 15 13 12 12 11 9 8 6 5 4 5 5 6 7 5 8 12 14 10 7 5 4 5 4 5 6
2 8 9 9 2 6 5 5 8 6 6 10 13 9 4 3 6 11 14 17 17 17 15 15 14 13 12 10 8 7 6 5 5 5 5 5 4 3 4 12 15 11 9 8 7 6 5 5 3
1 8 11 9 4 5 3 3 3 6 8 8 12 11 7 3 6 10 13 12 11 14 15 13 14 13 12 10 8 8 8 7 6 5 3 3 3 2 3 8 10 9 8 7 7 9 9 7 5
5 5 7 7 9 5 2 3 4 6 8 6 13 12 12 9 6 7 10 8 8 14 15 15 13 13 13 12 10 10 10 9 7 6 4 3 2 1 3 5 6 6 6 6 5 9 11 9 9
6 5 10 6 10 5 4 5 6 7 7 8 8 7 10 12 10 8 9 10 10 12 14 14 14 13 14 13 12 12 11 10 9 7 6 5 3 2 3 3 4 3 2 4 4 6 7 8 9
7 8 8 11 6 7 7 9 7 7 10 9 9 4 5 8 9 9 9 7 9 11 10 10 11 13 14 14 13 13 12 12 11 10 10 10 7 5 4 4 4 4 3 2 5 6 6 7 8
2 9 10 10 8 13 10 14 10 8 11 7 4 4 7 4 4 7 8 7 9 11 10 8 10 10 12 13 13 14 14 13 12 13 11 12 8 6 5 5 4 4 4 2 3 6 6 7 7
5 8 12 9 10 11 13 16 13 12 13 8 7 4 7 8 6 4 5 2 6 8 11 10 9 10 9 10 10 12 13 13 13 15 11 10 9 9 6 4 7 5 1 3 1 5 6 6 7
5 6 10 5 13 15 15 19 18 16 16 12 10 9 9 13 9 8 7 4 7 7 9 12 9 8 8 9 9 9 11 11 12 17 13 12 13 10 7 5 7 7 5 4 5 4 7 7 9
3 7 7 8 3 9 18 23 22 18 20 17 13 14 14 12 10 12 14 13 11 8 9 11 13 11 10 10 9 10 10 16 19 17 15 15 15 10 9 7 8 8 8 6 7 6 5 8 8
7 8 11 10 6 15 12 14 15 21 23 22 19 17 15 13 11 16 13 15 13 14 13 14 14 12 14 13 13 12 12 13 14 20 23 18 16 12 11 9 9 10 12 8 7 9 7 7 10
11 12 12 11 11 13 14 10 13 18 18 18 16 15 15 14 12 15 15 15 14 12 17 18 16 16 15 16 14 15 18 20 18 24 24 19 25 20 14 12 12 15 14 11 8 10 10 9 10
15 16 13 15 17 6 12 14 15 13 12 11 12 12 11 9 8 10 15 16 14 8 6 14 20 20 18 21 20 16 18 21 23 22 17 21 19 19 20 15 15 15 14 14 13 13 13 13 11
23 16 13 15 12 11 8 5 11 15 17 18 14 9 8 5 6 3 8 9 10 8 12 13 15 19 21 20 22 22 17 21 20 19 21 21 19 26 20 20 16 15 14 14 15 15 16 16 14
22 10 11 15 12 16 9 6 10 16 17 16 9 6 3 2 2 4 8 9 10 11 14 17 18 18 18 20 23 24 20 22 22 23 25 22 20 23 22 21 19 17 16 16 18 18 17 19 16
21 15 11 6 10 5 7 3 14 15 8 9 5 2 3 2 3 6 7 11 9 7 12 18 20 21 20 20 23 26 16 19 22 22 22 20 20 24 23 22 20 18 17 17 19 21 19 19 20
16 9 4 2 1 5 2 6 12 13 8 4 4 6 4 7 8 9 5 7 11 13 11 13 16 17 20 22 21 14 18 17 20 21 24 18 19 27 23 22 18 17 17 20 21 17 17 16 19
19 15 6 5 4 5 7 6 11 17 8 8 6 8 6 5 6 9 11 12 10 15 13 13 13 12 13 18 16 15 18 16 18 20 18 19 20 21 22 17 17 17 18 18 16 15 16 20 19
17 13 11 14 4 1 5 15 21 12 13 13 13 10 9 8 7 10 13 15 15 12 12 13 11 10 11 11 10 13 12 16 14 13 14 15 16 16 17 16 14 17 20 19 17 19 22 25 23
21 15 8 8 4 3 4 7 11 12 10 13 12 9 10 12 9 9 11 13 16 15 13 11 9 8 9 6 6 9 12 12 12 11 11 13 15 15 13 15 14 16 17 19 20 23 22 28 23
19 18 16 12 5 8 4 11 15 13 15 12 12 14 13 11 8 10 10 12 15 15 14 9 7 7 7 6 7 9 12 13 10 9 10 8 10 11 9 8 12 15 15 14 16 23 24 29 26
9 12 11 15 8 9 8 22 16 15 14 9 11 13 12 11 11 11 10 12 12 14 14 9 4 7 8 9 9 10 11 13 12 9 8 5 6 9 9 6 5 7 3 6 10 15 26 29 23
Wind_Direction
27 3 17 33 104 86 94 111 104 119 128 81 166 153 163 199 182 289 167 165 167 167 157 156 159 158 151 146 142 136 134 127 127 123 118 115 114 91 44 43 33 6 150 156 133 126 132 134 132
35 6 356 339 164 115 85 97 129 113 110 97 171 216 231 258 233 285 175 163 166 167 164 161 162 161 153 150 144 142 138 136 132 130 127 124 116 101 50 44 38 51 125 140 135 132 135 134 137
11 338 350 319 264 182 165 88 78 105 87 48 309 229 258 260 230 203 179 168 166 168 167 167 165 160 157 151 150 149 145 146 141 142 140 135 128 119 103 66 58 79 105 131 136 133 135 137 139
0 72 67 56 82 115 152 112 53 89 42 41 32 338 264 265 197 174 172 169 164 166 171 170 166 163 163 155 156 156 155 156 153 161 159 153 151 165 155 132 103 96 104 119 132 137 141 140 142
40 77 72 66 67 94 106 113 83 79 56 24 9 348 210 125 129 160 171 170 166 168 172 172 170 168 167 161 159 162 163 169 172 171 182 177 175 190 193 179 138 112 106 127 118 139 144 142 147
47 51 75 105 84 82 115 123 81 65 30 22 24 32 153 144 154 174 176 173 166 174 173 174 174 174 171 168 168 166 174 181 185 203 202 207 230 218 216 212 190 155 127 125 126 131 146 150 149
16 51 80 118 120 115 111 107 67 36 10 16 35 33 180 166 157 170 178 181 172 173 180 180 180 179 178 176 179 176 185 189 198 230 228 257 264 232 224 223 211 195 166 147 133 139 146 154 158
351 96 120 154 123 110 89 77 68 24 7 27 36 39 136 197 166 170 178 182 179 179 185 187 186 187 185 185 187 193 187 202 202 234 260 274 306 255 228 223 213 205 206 188 176 160 159 164 166
39 127 138 149 135 124 81 61 65 25 14 21 31 44 43 206 177 176 182 184 184 186 190 193 194 193 196 197 197 200 200 205 217 238 278 305 302 289 245 206 204 209 215 214 216 195 175 165 165
193 149 139 133 160 112 102 59 61 48 21 18 28 38 55 147 170 179 186 191 189 192 195 195 199 202 204 209 209 211 212 211 218 242 279 294 307 322 196 194 196 210 218 227 236 224 219 210 191
108 147 146 157 174 180 176 161 60 32 17 10 27 38 73 124 160 158 155 162 188 205 206 204 204 206 209 215 219 218 217 221 234 240 257 279 302 23 104 171 191 209 229 234 228 236 238 239 229
187 138 141 170 215 200 281 261 336 355 354 346 9 43 65 89 110 164 168 170 192 201 201 204 211 215 213 215 217 220 226 226 239 248 222 235 304 59 133 157 180 205 227 224 227 230 237 242 241
189 167 156 180 224 254 269 269 275 300 333 331 357 23 58 78 100 139 168 182 176 179 194 199 209 219 222 220 223 227 232 238 241 238 226 215 214 154 133 140 156 183 214 220 207 220 235 226 227
215 202 200 192 200 230 275 256 268 314 321 352 333 328 48 69 88 103 128 158 174 178 181 180 199 217 226 224 230 232 235 242 248 243 237 224 236 212 212 205 212 230 211 231 231 213 224 210 222
254 207 190 200 224 227 239 257 276 285 314 334 354 280 295 343 116 123 117 131 157 165 183 174 201 210 221 224 229 239 240 246 249 248 239 231 235 227 218 221 219 214 217 244 238 209 224 217 233
224 229 202 213 240 243 249 286 273 299 306 311 289 289 265 283 300 199 148 158 168 190 172 188 204 208 208 216 221 242 245 248 245 236 227 224 232 219 222 218 217 232 211 205 216 224 210 227 233
189 193 205 220 234 238 256 285 289 282 298 304 274 267 277 271 306 315 258 332 217 196 210 185 197 210 213 217 224 237 238 231 237 222 221 226 231 230 238 248 252 244 249 245 233 226 226 226 226
175 244 260 274 266 302 275 279 284 286 288 295 269 267 277 291 300 306 286 284 250 222 227 214 192 204 214 220 225 231 233 235 223 236 223 223 227 225 246 251 262 268 268 259 252 246 221 224 218
228 271 281 267 294 301 245 272 287 278 284 292 288 274 293 303 288 284 288 308 272 246 225 225 217 207 230 240 247 245 244 247 234 242 245 228 228 234 235 238 253 265 279 271 262 249 244 245 235
256 262 273 291 308 278 251 276 282 275 290 294 285 276 294 305 305 288 306 330 334 266 254 238 232 217 223 243 253 249 254 250 230 238 227 236 229 229 237 239 253 249 264 279 261 255 251 250 248
250 256 278 307 334 290 229 248 263 281 276 290 291 284 295 350 333 289 284 288 304 305 255 251 244 226 227 240 250 248 240 265 268 236 239 248 236 227 238 242 244 248 260 265 269 253 256 248 247
243 241 275 313 327 228 239 261 262 279 288 294 291 275 303 29 23 310 279 268 266 272 271 254 237 237 227 243 250 252 250 259 272 276 261 258 263 232 238 238 240 252 260 260 268 267 254 253 236
238 248 291 318 300 247 236 261 306 307 309 302 277 255 290 51 333 256 257 247 247 249 256 253 247 247 241 240 254 255 253 257 265 266 258 259 260 234 235 234 241 252 260 266 271 273 257 241 230
237 268 297 297 264 211 226 286 301 318 308 321 298 249 155 164 245 248 271 261 240 258 265 260 252 252 251 246 251 264 250 257 262 256 252 255 275 235 228 230 240 257 270 276 275 275 258 234 222
228 249 317 330 350 219 216 287 299 334 283 303 261 273 272 242 261 264 272 291 281 276 296 272 259 260 256 255 247 238 259 260 260 255 245 249 255 221 224 231 249 265 271 272 269 268 249 212 210
219 233 206 193 192 240 203 248 279 312 286 259 239 257 278 252 266 267 279 293 310 270 297 307 273 263 261 252 240 254 257 261 251 250 240 226 214 217 222 239 249 262 274 269 255 244 240 213 208
230 232 247 238 224 216 235 257 278 297 260 302 265 272 262 268 276 289 275 277 292 300 302 306 280 258 260 269 252 242 235 244 239 238 222 211 213 220 233 237 252 264 275 266 251 246 234 218 211
230 239 230 218 135 213 261 250 247 300 264 297 288 262 258 257 266 270 276 288 293 305 310 305 278 248 248 232 206 204 210 212 200 202 211 217 226 236 237 245 249 271 279 268 246 237 219 215 207
216 228 238 251 219 174 209 254 265 272 307 283 258 272 264 248 258 252 259 280 294 304 313 299 271 227 226 214 192 201 205 206 184 172 198 229 247 236 233 227 255 275 280 268 233 224 220 211 207
205 213 229 234 225 211 234 248 252 270 295 295 245 250 272 273 263 245 252 268 288 303 313 305 256 211 208 212 210 208 208 207 210 209 213 242 209 187 206 234 269 294 292 306 241 231 218 203 197
Height
3155 3154 3153 3152 3156 3155 3155 3157 3158 3159 3159 3160 3160 3161 3162 3162 3163 3167 3164 3166 3170 3173 3174 3177 3179 3182 3184 3185 3187 3189 3191 3192 3193 3193 3195 3196 3198 3197 3195 3194 3194 3194 3195 3196 3198 3198 3199 3200 3202
3155 3154 3153 3152 3154 3154 3157 3158 3159 3160 3161 3162 3162 3161 3163 3162 3162 3163 3164 3167 3171 3174 3176 3178 3180 3182 3185 3187 3188 3190 3191 3193 3195 3195 3196 3197 3199 3199 3197 3196 3195 3194 3194 3198 3199 3200 3201 3202 3204
3156 3155 3155 3153 3152 3155 3159 3159 3161 3162 3162 3163 3162 3161 3161 3160 3161 3163 3165 3167 3171 3174 3177 3179 3182 3183 3186 3188 3190 3192 3193 3194 3196 3196 3197 3199 3200 3200 3199 3199 3198 3197 3198 3199 3200 3201 3201 3203 3204
3157 3157 3158 3157 3156 3159 3160 3161 3162 3162 3164 3163 3162 3162 3162 3159 3160 3163 3166 3169 3172 3175 3178 3181 3183 3185 3187 3189 3191 3193 3194 3195 3197 3198 3198 3199 3200 3200 3201 3201 3200 3199 3199 3200 3200 3201 3202 3203 3204
3159 3158 3159 3159 3159 3162 3162 3163 3164 3163 3164 3164 3162 3161 3161 3161 3162 3166 3169 3171 3173 3176 3179 3181 3184 3186 3188 3190 3192 3193 3195 3196 3197 3198 3199 3200 3201 3201 3202 3202 3202 3202 3201 3201 3201 3201 3202 3204 3205
3161 3162 3162 3161 3162 3163 3163 3164 3165 3164 3165 3165 3163 3162 3162 3161 3165 3168 3170 3172 3174 3178 3179 3182 3184 3186 3188 3191 3192 3193 3196 3197 3198 3199 3200 3200 3201 3202 3202 3202 3203 3203 3203 3202 3203 3203 3203 3204 3205
3162 3163 3164 3164 3165 3165 3165 3166 3165 3164 3166 3165 3163 3163 3164 3163 3164 3167 3171 3174 3175 3178 3181 3183 3185 3186 3189 3191 3193 3195 3196 3198 3198 3199 3200 3200 3200 3200 3201 3202 3202 3203 3203 3204 3204 3205 3205 3205 3205
3163 3164 3165 3165 3167 3168 3167 3166 3165 3165 3166 3166 3164 3164 3164 3164 3164 3167 3171 3174 3176 3179 3181 3184 3185 3187 3189 3191 3193 3195 3197 3198 3198 3199 3199 3198 3199 3198 3198 3200 3202 3203 3203 3204 3204 3205 3206 3206 3206
3164 3165 3166 3168 3169 3168 3168 3166 3167 3167 3166 3166 3165 3163 3164 3164 3165 3167 3170 3172 3175 3178 3181 3183 3186 3188 3189 3191 3193 3195 3196 3197 3198 3199 3199 3199 3199 3198 3197 3198 3200 3202 3203 3203 3203 3204 3206 3207 3207
3165 3166 3168 3169 3169 3169 3169 3169 3169 3169 3167 3167 3166 3164 3163 3165 3166 3167 3169 3172 3174 3177 3180 3182 3185 3187 3189 3191 3193 3195 3196 3197 3198 3198 3199 3199 3198 3197 3195 3196 3199 3201 3203 3202 3202 3202 3204 3206 3206
3165 3167 3169 3170 3170 3170 3170 3171 3171 3169 3168 3167 3167 3165 3164 3165 3166 3168 3170 3173 3175 3176 3179 3182 3184 3186 3188 3191 3192 3194 3195 3197 3197 3197 3198 3198 3198 3197 3196 3197 3199 3201 3202 3202 3202 3202 3203 3204 3205
3166 3168 3169 3170 3170 3170 3171 3171 3170 3170 3169 3168 3167 3166 3165 3166 3167 3168 3170 3172 3173 3174 3177 3179 3182 3185 3187 3189 3191 3192 3194 3196 3197 3197 3198 3198 3197 3197 3197 3197 3199 3200 3201 3200 3201 3201 3201 3202 3202
3166 3167 3169 3170 3170 3170 3170 3170 3171 3170 3169 3168 3167 3167 3166 3166 3166 3167 3168 3169 3171 3172 3175 3177 3180 3183 3185 3187 3189 3191 3193 3195 3196 3197 3197 3197 3197 3197 3197 3197 3198 3199 3200 3199 3200 3200 3200 3201 3202
3165 3166 3168 3168 3169 3169 3169 3169 3170 3170 3169 3169 3167 3167 3166 3166 3166 3166 3166 3169 3170 3171 3173 3175 3178 3180 3183 3185 3187 3190 3191 3193 3195 3196 3196 3197 3197 3197 3197 3197 3197 3198 3199 3199 3198 3198 3199 3199 3201
3166 3167 3167 3168 3169 3169 3169 3170 3169 3169 3168 3168 3167 3166 3166 3165 3166 3166 3167 3167 3168 3169 3171 3174 3176 3178 3180 3183 3185 3187 3189 3191 3193 3195 3196 3196 3196 3196 3197 3197 3197 3197 3198 3198 3197 3197 3197 3199 3200
3166 3166 3167 3168 3168 3169 3170 3165 3167 3168 3166 3166 3165 3165 3164 3163 3164 3165 3165 3166 3167 3168 3169 3171 3174 3177 3178 3181 3182 3185 3187 3189 3190 3192 3193 3194 3195 3195 3196 3196 3196 3197 3197 3196 3196 3196 3196 3198 3199
3165 3166 3167 3167 3168 3168 3169 3164 3165 3165 3165 3164 3163 3163 3162 3161 3162 3163 3164 3165 3166 3167 3169 3169 3170 3174 3176 3178 3180 3182 3184 3186 3188 3189 3190 3192 3194 3194 3194 3195 3195 3195 3195 3195 3195 3195 3196 3196 3197
3164 3164 3165 3166 3169 3168 3167 3162 3162 3163 3162 3161 3161 3160 3159 3159 3161 3161 3162 3164 3165 3165 3167 3169 3169 3171 3173 3175 3177 3179 3181 3183 3184 3187 3188 3189 3191 3192 3193 3193 3194 3194 3194 3194 3194 3195 3195 3196 3196
3163 3163 3163 3164 3165 3164 3163 3161 3160 3160 3159 3158 3157 3157 3157 3157 3159 3158 3157 3158 3158 3162 3164 3167 3169 3168 3170 3172 3174 3177 3179 3180 3180 3183 3184 3186 3187 3189 3190 3190 3190 3191 3192 3192 3192 3192 3193 3193 3194
3162 3162 3162 3161 3161 3160 3160 3158 3158 3157 3156 3154 3154 3154 3155 3155 3156 3155 3155 3154 3156 3157 3160 3164 3166 3166 3166 3168 3171 3173 3174 3175 3176 3176 3178 3180 3182 3184 3186 3186 3186 3188 3189 3189 3190 3191 3190 3191 3192
3160 3160 3161 3162 3158 3157 3157 3157 3156 3155 3153 3152 3150 3151 3153 3153 3154 3155 3156 3156 3156 3155 3156 3160 3163 3163 3163 3164 3166 3168 3169 3169 3167 3170 3174 3175 3177 3180 3182 3183 3184 3185 3186 3186 3188 3189 3188 3188 3190
3157 3160 3160 3159 3158 3157 3156 3155 3153 3152 3150 3148 3147 3148 3151 3151 3151 3152 3153 3153 3154 3154 3155 3156 3157 3159 3159 3159 3160 3163 3164 3166 3166 3168 3168 3171 3171 3174 3177 3179 3180 3181 3180 3180 3184 3185 3185 3186 3188
3154 3158 3158 3156 3155 3156 3155 3155 3150 3149 3147 3146 3144 3146 3148 3149 3150 3150 3150 3151 3152 3152 3152 3153 3153 3154 3155 3155 3155 3157 3158 3160 3162 3164 3165 3167 3166 3170 3173 3175 3177 3178 3178 3179 3181 3181 3181 3182 3185
3153 3155 3155 3153 3154 3154 3153 3154 3148 3147 3146 3144 3145 3146 3147 3149 3149 3150 3150 3150 3151 3151 3151 3150 3149 3150 3150 3150 3151 3152 3154 3154 3157 3158 3161 3162 3163 3165 3168 3170 3173 3174 3175 3176 3176 3177 3177 3178 3181
3149 3151 3152 3154 3155 3153 3151 3151 3148 3147 3145 3145 3146 3147 3148 3149 3149 3149 3150 3149 3149 3149 3148 3146 3145 3145 3144 3144 3146 3148 3148 3149 3151 3152 3156 3157 3158 3161 3164 3167 3170 3170 3171 3171 3170 3171 3173 3174 3178
3146 3148 3150 3154 3156 3150 3149 3147 3147 3147 3145 3144 3145 3146 3147 3148 3148 3148 3148 3147 3147 3146 3144 3142 3141 3141 3140 3141 3142 3143 3144 3145 3147 3148 3150 3152 3155 3158 3161 3165 3166 3166 3167 3165 3164 3166 3170 3173 3175
3142 3144 3146 3146 3148 3149 3147 3145 3145 3144 3143 3143 3143 3144 3146 3147 3146 3146 3146 3145 3144 3143 3142 3139 3138 3138 3137 3138 3138 3139 3140 3143 3144 3146 3149 3151 3154 3156 3159 3160 3162 3163 3162 3161 3160 3163 3166 3170 3172
3138 3141 3142 3142 3147 3149 3145 3143 3144 3143 3143 3142 3142 3142 3144 3145 3144 3144 3143 3142 3141 3140 3138 3136 3135 3135 3136 3136 3136 3137 3139 3141 3143 3145 3149 3151 3153 3155 3156 3157 3158 3159 3157 3156 3156 3158 3161 3165 3169
3134 3134 3137 3139 3138 3141 3146 3141 3142 3142 3141 3141 3141 3141 3142 3142 3142 3142 3141 3140 3138 3136 3135 3133 3132 3133 3134 3135 3136 3138 3140 3142 3144 3144 3148 3151 3152 3152 3154 3155 3156 3155 3154 3152 3151 3153 3154 3159 3165
3128 3130 3132 3133 3136 3136 3137 3134 3139 3140 3139 3138 3139 3139 3139 3139 3139 3139 3138 3138 3136 3134 3133 3132 3131 3131 3133 3134 3136 3137 3139 3141 3143 3144 3147 3150 3151 3151 3153 3153 3153 3152 3151 3148 3148 3148 3149 3153 3160